Location: Borojevi?i
(45.0486°N, 16.2297°E)
Time: 10:15:52
(UTC+00:00)

Cosmos 1605 Rocket - Pass Details

Date: 08 August 2020
Orbit: 945 x 1005 km, 82.9° (Epoch: 20 September)

Event Time Altitude Azimuth Distance (km) Brightness Sun altitude
Exits shadow 20:21:07 23° 179° (S) 1,902 5.1 -19.2°
Maximum altitude 20:25:07 79° 96° (E) 973 3.9 -19.6°
Drops below altitude 10° 20:31:13 10° 11° (N) 2,679 6.8 -20.3°
Sets 20:33:43 0° 10° (N) 3,626 7.6 -20.6°
